Back to catalog

STARLINK-35378

AliveCommunicationsSSO
NORAD 65794·PAYLOAD·🇺🇸 United States

Launched Sep 26, 2025 from Vandenberg Space Force Base

Loading…

Next Passes (next 24 hours)

TLE

FreshSource: CelesTrak SupGP

Epoch: Sep 14, 2026, 15:43 UTC

1 65794C 25218D   26257.65534722 -.00027393  00000+0 -85034-3 0  2570
2 65794  97.2843 115.1643 0001718  86.9127 203.7842 15.33453062    16

Track STARLINK-35378 in real time with AllMySat

Download on the App Store